Location: ???????
(55.3754°N, 39.3545°E)
Time: 07:36:28
(UTC+00:00)

Aureole 3 Rocket - Pass Details

Date: 14 April 2026
Orbit: 398 x 1686 km, 82.5° (Epoch: 9 May)

Event Time Altitude Azimuth Distance (km) Brightness Sun altitude
Exits shadow 22:17:47 76° 245° (WSW) 692 3.1 -23.9°
Maximum altitude 22:18:01 79° 284° (WNW) 693 3.1 -23.9°
Drops below altitude 10° 22:23:34 10° 11° (N) 2,530 7.3 -23.7°
Sets 22:26:29 0° 13° (NNE) 3,699 8.5 -23.6°
